Regional Weather Roundup
Issued by NWS

Home | Current Version | Previous Version | Graphics & Text | Print | Product List | Glossary On
Versions: 1 2 3 4 5 6 7 8 9 10 11 12 13 14 15 16 17 18 19 20 21 22 23 24 25 26 27 28 29 30 31 32 33 34 35 36 37 38 39 40 41 42 43 44 45 46 47 48 49 50
000
ASUS45 KBOU 301307
RWRCO

WEATHER ROUNDUP FOR COLORADO
NATIONAL WEATHER SERVICE DENVER/BOULDER CO
700 AM MDT TUE AUG 30 2016

NOTE: "FAIR" INDICATES FEW OR NO CLOUDS BELOW 12000 FEET WITH NO
SIGNIFICANT WEATHER AND/OR OBSTRUCTIONS TO VISIBILITY.

COZ001>005-013-030-031-301400-
...NORTHWEST COLORADO...

CITY           SKY/WX    TMP DP  RH WIND       PRES   REMARKS
CRAIG          FAIR      47  38  71 SE5       30.38R
HAYDEN         FAIR      48  34  57 E12       30.39R
MEEKER         FAIR      41  38  89 CALM      30.38R
MOUNT WERNER   NOT AVBL
STEAMBOAT SPGS FAIR      41  35  79 CALM      30.42R
WALDEN         FAIR      32  30  93 SE6       30.51S WCI  26
$$

COZ006>008-011-301400-
...WEST CENTRAL VALLEYS...

CITY           SKY/WX    TMP DP  RH WIND       PRES   REMARKS
GRAND JUNCTION FAIR      59  43  55 E13       30.28R
MONTROSE       FAIR      48  43  82 SE5       30.36R
EAGLE          CLEAR     41  39  93 E8        30.45S
RIFLE          FAIR      48  43  82 SE3       30.34S
DELTA          FAIR      53  42  68 NE6       30.33R
NUCLA          FAIR     N/A N/A N/A CALM      30.37S
$$

COZ017>023-064>068-301400-
...SOUTHWEST COLORADO...

CITY           SKY/WX    TMP DP  RH WIND       PRES   REMARKS
DURANGO        FAIR      51  42  71 CALM      30.39S
CORTEZ         FAIR      50  46  86 CALM      30.33R
PAGOSA SPRINGS CLOUDY    50  41  73 NE3       30.46S
TELLURIDE      FAIR      46  39  76 SE8       30.53S
WOLF CREEK PAS FAIR      37  34  87 MISG      30.70R
$$

COZ009-010-012-014-032>034-037-058>063-301400-
...CENTRAL COLORADO...

CITY           SKY/WX    TMP DP  RH WIND       PRES   REMARKS
ASPEN          FAIR      40  36  86 S7        30.45S
BUENA VISTA    FAIR      42  38  87 NW5       30.52S
COPPER MTN     FAIR      45  32  61 S6        30.69R
BERTHOUD PASS  FAIR      34  21  60 E17G25    30.71S WCI  23
COTTONWOOD PAS FAIR      48  36  61 SW7       30.59S
GUNNISON       FAIR      41  37  87 CALM      30.51S
KREMMLING      FAIR      36  34  93 CALM      30.49S
LEADVILLE      FAIR      32  30  92 CALM      30.58R
MONARCH PASS   FAIR      36  34  93 E9        30.78S
SALIDA         FAIR      42  39  90 W5        30.58S
SUNLIGHT       FAIR      43  36  75 W5        30.64R
WILKERSON PASS CLOUDY    41  34  75 NE3       30.69R
$$

COZ069>075-301400-
...SAN LUIS VALLEY/SANGRE DE CRISTO MOUNTAINS...

CITY           SKY/WX    TMP DP  RH WIND       PRES   REMARKS
ALAMOSA        FAIR      38  37  97 W6        30.47R
LA VETA PASS   FAIR      41  37  87 N3        30.59R
SAGUACHE       FAIR      43  41  93 NW15      30.48S
$$

COZ035-036-038>040-301400-
...NORTHERN COLORADO FRONT RANGE...

CITY           SKY/WX    TMP DP  RH WIND       PRES   REMARKS
DENVER INTL AP MOCLDY    60  46  59 SW7       30.34S
DMNS CITY PARK   N/A     57  48  72 SW3       30.34S
AURORA         MOCLDY    54  47  75 S8        30.36S
FRONT RANGE AP NOT AVBL
ERIE MUNI ARPT FAIR      52  47  84 CALM      30.33R
BOULDER MUN AP FAIR      59  46  63 SW7       30.33S
CENTENNIAL     MOCLDY    55  45  68 SW5       30.36S
BROOMFIELD     PTCLDY    57  45  62 W5        30.36S
FORT COLLINS   FAIR      55  50  82 NE5       30.33R
LONGMONT       FAIR      55  49  79 CALM      30.34S
$$

COZ041-046-047-076>085-087-088-301400-
...PIKES PEAK/PALMER DIVIDE AND SOUTHERN FOOTHILLS...

CITY           SKY/WX    TMP DP  RH WIND       PRES   REMARKS
COLO. SPRINGS  FAIR      53  45  74 N5        30.40S
A. F. ACADEMY  FAIR      48  46  92 N7        30.41R
SCHRIEVER AFB  NOT AVBL
ELLICOTT       NOT AVBL
FALCON         CLOUDY    51  46  82 W3        30.44R
FORT CARSON    CLOUDY    53  47  80 NW7       30.37R
LIMON          FAIR      51  48  89 N5        30.35R
MONUMENT HILL  CLOUDY    50  43  76 S6        30.44S
TRINIDAD       FAIR      53  48  83 W12       30.37R
$$

COZ042>045-048>051-090-091-301400-
...NORTHEAST COLORADO...

CITY           SKY/WX    TMP DP  RH WIND       PRES   REMARKS
GREELEY ARPT   FAIR      55  52  88 CALM      30.32S
AKRON          FAIR      57  51  80 W7        30.30R
BURLINGTON     FOG       60  58  92 W7        30.28S VSB<1/4
WRAY           NOT AVBL
STERLING       FAIR      54  54 100 CALM      30.27R
HOLYOKE        FAIR      59  55  88 SE3       30.28R FOG
FORT MORGAN    FAIR      56  54  92 W6        30.31R
$$

COZ086-089-092>099-301400-
...SOUTHEAST COLORADO...

CITY           SKY/WX    TMP DP  RH WIND       PRES   REMARKS
PUEBLO         FAIR      59  52  77 W6        30.32R
LA JUNTA       CLOUDY    61  56  83 CALM      30.29R
LAMAR          CLOUDY    60  59  96 CALM      30.26R FOG
SPRINGFIELD      N/A     60  56  86 W5        30.29R
$$



USA.gov is the U.S. government's official web portal to all federal, state and local government web resources and services.